Location: Colonia Mina de C?rbuni
(46.1667°N, 22.7167°E)
Time: 12:25:16
(UTC+00:00)

Lacrosse 5 - Visible Passes

Search period start: 25 September 2023 00:00
Search period end: 05 October 2023 00:00
Orbit: 714 x 724 km, 57.0° (Epoch: 09 March)

Date Brightness Start Highest point End Pass type
(mag) Time Alt. Az. Time Alt. Az. Time Alt. Az.
25 Sep 3.7 17:48:42 10° WNW 17:52:58 26° N 17:57:14 10° NE visible
25 Sep 3.6 19:32:53 10° NW 19:36:38 27° N 19:36:38 27° N visible
26 Sep 3.5 16:54:54 10° W 16:59:24 30° NNW 17:03:54 10° NE visible
26 Sep 3.5 18:39:29 10° NW 18:43:41 25° N 18:45:14 21° NNE visible
26 Sep 4.3 20:22:46 10° NW 20:24:24 20° NW 20:24:24 20° NW visible
27 Sep 3.7 17:45:54 10° NW 17:50:02 24° N 17:53:49 12° NE visible
27 Sep 3.5 19:29:36 10° NW 19:33:00 30° N 19:33:00 30° N visible
28 Sep 3.6 16:52:10 10° WNW 16:56:25 26° N 17:00:41 10° NE visible
28 Sep 3.3 18:36:20 10° NW 18:40:44 28° NNE 18:41:36 26° NNE visible
28 Sep 4.3 20:19:22 10° NW 20:20:47 19° NW 20:20:47 19° NW visible
29 Sep 3.5 17:42:56 10° NW 17:47:07 25° N 17:50:13 15° NE visible
29 Sep 3.3 19:26:14 10° NW 19:29:24 33° NNW 19:29:24 33° NNW visible
30 Sep 3.6 16:49:21 10° NW 16:53:29 24° N 16:57:39 10° NE visible
30 Sep 2.9 18:33:03 10° NW 18:37:43 34° NNE 18:38:02 33° NNE visible
30 Sep 4.4 20:16:00 10° NW 20:17:14 18° NW 20:17:14 18° NW visible
01 Oct 3.3 17:39:48 10° NW 17:44:10 28° NNE 17:46:42 19° NE visible
01 Oct 3.3 19:22:49 10° NW 19:25:53 36° NW 19:25:53 36° NW visible
02 Oct 3.5 16:46:23 10° NW 16:50:34 25° N 16:54:46 10° ENE visible
02 Oct 2.4 18:29:41 10° NW 18:34:34 45° NNE 18:34:34 45° NNE visible
02 Oct 4.5 20:12:45 10° WNW 20:13:46 16° WNW 20:13:46 16° WNW visible
03 Oct 2.9 17:36:30 10° NW 17:41:10 34° NNE 17:43:18 24° ENE visible
03 Oct 3.3 19:19:27 10° NW 19:22:30 36° WNW 19:22:30 36° WNW visible
04 Oct 3.2 16:43:15 10° NW 16:47:37 27° NNE 16:52:00 10° ENE visible
04 Oct 1.9 18:26:17 10° NW 18:31:15 66° NNE 18:31:15 66° NNE visible
04 Oct 4.6 20:09:44 10° WNW 20:10:27 13° WNW 20:10:27 13° WNW visible
